TimeEST,TemperatureF,Dew PointF,Humidity,Sea Level PressureIn,VisibilityMPH,Wind Direction,Wind SpeedMPH,Gust SpeedMPH,PrecipitationIn,Events,Conditions,WindDirDegrees,DateUTC
1:53 AM,32.0,27.0,82,30.50,10.0,Calm,Calm,-,N/A,,Clear,0,2013-01-19 06:53:00
2:53 AM,30.0,26.1,85,30.49,10.0,Calm,Calm,-,N/A,,Clear,0,2013-01-19 07:53:00
3:53 AM,30.0,26.1,85,30.48,10.0,Calm,Calm,-,N/A,,Clear,0,2013-01-19 08:53:00
4:53 AM,28.0,25.0,88,30.47,10.0,Calm,Calm,-,N/A,,Clear,0,2013-01-19 09:53:00
5:53 AM,27.0,24.1,89,30.46,10.0,Calm,Calm,-,N/A,,Clear,0,2013-01-19 10:53:00
6:53 AM,26.1,24.1,92,30.46,10.0,Calm,Calm,-,N/A,,Clear,0,2013-01-19 11:53:00
7:53 AM,27.0,25.0,92,30.47,10.0,Calm,Calm,-,N/A,,Clear,0,2013-01-19 12:53:00
8:53 AM,35.1,30.0,82,30.48,10.0,Calm,Calm,-,N/A,,Clear,0,2013-01-19 13:53:00
9:53 AM,39.0,30.9,73,30.49,10.0,Calm,Calm,-,N/A,,Clear,0,2013-01-19 14:53:00
10:53 AM,46.0,27.0,47,30.46,10.0,Calm,Calm,-,N/A,,Clear,0,2013-01-19 15:53:00
11:53 AM,48.9,23.0,36,30.40,10.0,Calm,Calm,-,N/A,,Clear,0,2013-01-19 16:53:00
12:53 PM,52.0,23.0,32,30.35,10.0,SSE,3.5,-,N/A,,Clear,150,2013-01-19 17:53:00
1:53 PM,55.0,27.0,34,30.30,10.0,SW,8.1,-,N/A,,Clear,230,2013-01-19 18:53:00
2:53 PM,57.0,30.0,36,30.27,10.0,SW,8.1,-,N/A,,Clear,230,2013-01-19 19:53:00
3:53 PM,57.9,30.9,36,30.25,10.0,SW,9.2,-,N/A,,Clear,230,2013-01-19 20:53:00
4:53 PM,57.0,32.0,39,30.24,10.0,SSW,6.9,-,N/A,,Clear,210,2013-01-19 21:53:00
5:53 PM,53.1,33.1,47,30.23,10.0,SSW,3.5,-,N/A,,Clear,210,2013-01-19 22:53:00
6:53 PM,46.9,37.0,68,30.24,10.0,South,5.8,-,N/A,,Clear,180,2013-01-19 23:53:00
7:53 PM,45.0,36.0,71,30.24,10.0,SSW,4.6,-,N/A,,Clear,210,2013-01-20 00:53:00
8:53 PM,45.0,36.0,71,30.23,10.0,SSW,5.8,-,N/A,,Partly Cloudy,210,2013-01-20 01:53:00
9:53 PM,46.9,37.0,68,30.21,10.0,SSW,5.8,-,N/A,,Partly Cloudy,200,2013-01-20 02:53:00
10:53 PM,45.0,37.0,74,30.19,10.0,SSW,4.6,-,N/A,,Clear,200,2013-01-20 03:53:00
11:53 PM,41.0,36.0,82,30.17,10.0,SSW,4.6,-,N/A,,Clear,210,2013-01-20 04:53:00